This demonstration page uses our WeatherBlox Daily Observations layout. Learn more.

Left ArrowRight Arrow

44.89941, -97.11507

Hourly Observations for July 10, 2020

Temp ( °F °C ) Dew Point ( °F °C ) Humidity (%) Winds ( mph kmh ) Pressure ( in mb ) Visibility ( mi km ) Precip ( " mm )
12:53 am 00:53 Clear 65 18.3 60 15.6 84 84 Calm 29.95 1014 10 16 0.00 0.00
1:53 am 01:53 Clear 63 17.2 61 16.1 93 93 SW 5 7 29.97 1015 10 16 0.00 0.00
2:53 am 02:53 Clear 65 18.3 62 16.7 90 90 W 3 6 29.97 1015 10 16 0.00 0.00
3:53 am 03:53 Clear 59 15 57 13.9 93 93 NNE 5 7 29.96 1014 10 16 0.00 0.00
4:53 am 04:53 Clear 59 15 57 13.9 93 93 N 8 13 29.97 1015 10 16 0.00 0.00
5:53 am 05:53 Sunny 62 16.7 58 14.4 86 86 Calm 29.97 1015 10 16 0.00 0.00
6:53 am 06:53 Sunny 64 17.8 59 15 84 84 Calm 29.99 1016 10 16 0.00 0.00
7:53 am 07:53 Sunny 69 20.6 61 16.1 76 76 NE 6 9 29.97 1015 10 16 0.00 0.00
8:53 am 08:53 Sunny 72 22.2 59 15 64 64 ENE 5 7 29.98 1015 10 16 0.00 0.00
9:53 am 09:53 Sunny 74 23.3 59 15 60 60 ENE 7 11 29.99 1016 10 16 0.00 0.00
10:53 am 10:53 Mostly Sunny 77 25 56 13.3 48 48 VRB 3 6 29.99 1016 10 16 0.00 0.00
11:53 am 11:53 Mostly Sunny 79 26.1 58 14.4 49 49 undefined N/A 29.98 1015 10 16 0.00 0.00
12:53 pm 12:53 Mostly Cloudy 79 26.1 59 15 50 50 S 5 7 29.99 1016 10 16 0.00 0.00
1:53 pm 13:53 Sunny 80 26.7 61 16.1 52 52 S 6 9 29.97 1015 10 16 0.00 0.00
2:53 pm 14:53 Sunny 82 27.8 63 17.2 53 53 S 12 19 29.96 1015 10 16 0.00 0.00
3:53 pm 15:53 Sunny 82 27.8 64 17.8 55 55 S 12 19 29.95 1014 10 16 0.00 0.00
4:53 pm 16:53 Mostly Sunny 83 28.3 66 18.9 57 57 S 10 17 29.94 1014 10 16 0.00 0.00
5:53 pm 17:53 Mostly Sunny 83 28.3 66 18.9 57 57 S 3 6 29.92 1013 10 16 0.00 0.00
6:53 pm 18:53 Sunny 83 28.3 66 18.9 57 57 VRB 3 6 29.93 1013 10 16 0.00 0.00
7:53 pm 19:53 Partly Cloudy 81 27.2 67 19.4 62 62 S 5 7 29.94 1014 10 16 0.00 0.00
8:53 pm 20:53 Sunny 77 25 68 20 74 74 SSW 6 9 29.93 1014 10 16 0.00 0.00
9:53 pm 21:53 Mostly Cloudy 75 23.9 68 20 79 79 NE 3 6 29.94 1014 10 16 0.00 0.00
10:53 pm 22:53 Mostly Clear 74 23.3 66 18.9 76 76 ENE 3 6 29.95 1014 10 16 0.00 0.00
11:53 pm 23:53 Clear 74 23.3 65 18.3 74 74 E 7 11 29.90 1013 10 16 0.00 0.00

Powered by AerisWeather